Eastsound, WA
on Wednesday, November 28, 2012

Wednesday
Previous Day Next Day
Daily Summary
 ActualAverage (KBLI)Record (KBLI)
Temperature
Mean Temperature °F 40°F  
Max Temperature 51°F 47°F 58°F (1995)
Min Temperature 41°F 34°F 12°F (2006)
Degree Days
Heating Degree Days 19 25  
Month to date heating degree days 603  
Cooling Degree Days 0 0  
Month to date cooling degree days 0  
Year to date cooling degree days 42  
Moisture
Dew Point 39°F   
Average Humidity 82    
Maximum Humidity 93    
Minimum Humidity 61    
Precipitation
Precipitation 0.00 in 0.19 in 1.13 in (1995)
Month to date precipitation 5.43  
Year to date precipitation 31.24  
Wind
Wind Speed 3 mph   
Max Wind Speed 16 mph   
Max Gust Speed 29 mph   
Visibility 10 miles   
Events Rain   

Key: T is trace of precipitation, MM is missing value
Source: NWS Daily Summary
Time(PST)TemperatureDew PointHumidity Pressure Visibility Wind DirectionWind SpeedGust SpeedPrecipitationEvents Conditions
12:15 AM 44.6°F 32.0°F 61% 29.90 in 10.0 miles NNE 3.5 mph - N/A   Clear
12:35 AM 44.6°F 33.8°F 66% 29.89 in 10.0 miles NNE 4.6 mph - N/A   Clear
12:55 AM 44.6°F 33.8°F 66% 29.88 in 10.0 miles Calm Calm - N/A   Clear
1:15 AM 44.6°F 33.8°F 66% 29.87 in 10.0 miles Calm Calm - N/A   Clear
1:35 AM 44.6°F 37.4°F 76% 29.87 in 10.0 miles North 3.5 mph - N/A   Clear
1:55 AM 42.8°F 37.4°F 81% 29.87 in 10.0 miles Calm Calm - N/A   Clear
2:15 AM 41.0°F 37.4°F 87% 29.87 in 10.0 miles Calm Calm - N/A   Clear
2:35 AM 41.0°F 37.4°F 87% 29.87 in 10.0 miles Calm Calm - N/A   Clear
2:55 AM 42.8°F 37.4°F 81% 29.85 in 10.0 miles North 3.5 mph - N/A   Clear
3:15 AM 41.0°F 37.4°F 87% 29.85 in 10.0 miles Calm Calm - N/A   Clear
3:35 AM 41.0°F 39.2°F 93% 29.85 in 10.0 miles Calm Calm - N/A   Clear
3:55 AM 41.0°F 39.2°F 93% 29.83 in 10.0 miles Calm Calm - N/A   Clear
4:15 AM 41.0°F 39.2°F 93% 29.83 in 10.0 miles Calm Calm - N/A   Clear
4:35 AM 41.0°F 39.2°F 93% 29.82 in 10.0 miles Calm Calm - N/A   Clear
4:55 AM 41.0°F 39.2°F 93% 29.81 in 10.0 miles Calm Calm - N/A   Clear
5:15 AM 42.8°F 39.2°F 87% 29.80 in 10.0 miles North 4.6 mph - N/A   Clear
5:35 AM 42.8°F 35.6°F 76% 29.80 in 10.0 miles NE 5.8 mph - N/A   Clear
5:55 AM 42.8°F 37.4°F 81% 29.79 in 10.0 miles Calm Calm - N/A   Clear
6:15 AM 42.8°F 37.4°F 81% 29.78 in 10.0 miles North - - N/A   Clear
6:35 AM 44.6°F 37.4°F 76% 29.78 in 10.0 miles NNE 4.6 mph - N/A   Clear
6:55 AM 44.6°F 35.6°F 71% 29.77 in 10.0 miles Calm Calm - N/A   Clear
7:15 AM 42.8°F 35.6°F 76% 29.76 in 10.0 miles NE 4.6 mph - N/A   Partly Cloudy
7:35 AM 42.8°F 35.6°F 76% 29.75 in 10.0 miles Calm Calm - N/A   Partly Cloudy
7:55 AM 42.8°F 35.6°F 76% 29.74 in 10.0 miles NNE 3.5 mph - N/A   Partly Cloudy
8:15 AM 42.8°F 35.6°F 76% 29.73 in 10.0 miles NE 4.6 mph - N/A   Scattered Clouds
8:35 AM 41.0°F 35.6°F 81% 29.73 in 10.0 miles Calm Calm - N/A   Partly Cloudy
8:55 AM 41.0°F 35.6°F 81% 29.72 in 10.0 miles NNE 3.5 mph - N/A   Clear
9:15 AM 41.0°F 35.6°F 81% 29.72 in 10.0 miles NE 3.5 mph - N/A   Clear
9:35 AM 41.0°F 35.6°F 81% 29.73 in 10.0 miles Calm Calm - N/A   Clear
9:55 AM 42.8°F 35.6°F 76% 29.72 in 10.0 miles Calm Calm - N/A   Clear
10:15 AM 42.8°F 35.6°F 76% 29.71 in 10.0 miles Calm Calm - N/A Rain Light Rain
10:35 AM 44.6°F 35.6°F 71% 29.69 in 10.0 miles Calm Calm - N/A   Clear
10:55 AM 44.6°F 37.4°F 76% 29.68 in 10.0 miles North 4.6 mph - N/A   Clear
11:15 AM 44.6°F 37.4°F 76% 29.67 in 10.0 miles Calm Calm - N/A   Clear
11:35 AM 44.6°F 37.4°F 76% 29.66 in 10.0 miles Calm Calm - N/A   Clear
11:55 AM 44.6°F 37.4°F 76% 29.64 in 10.0 miles Calm Calm - N/A   Partly Cloudy
12:15 PM 44.6°F 37.4°F 76% 29.64 in 10.0 miles NE 4.6 mph - N/A Rain Light Rain
12:35 PM 44.6°F 37.4°F 76% 29.64 in 9.0 miles Calm Calm - N/A Rain Light Rain
12:55 PM 44.6°F 37.4°F 76% 29.63 in 7.0 miles Calm Calm - N/A Rain Light Rain
1:15 PM 44.6°F 39.2°F 81% 29.61 in 7.0 miles Calm Calm - N/A Rain Light Rain
1:35 PM 42.8°F 39.2°F 87% 29.60 in 7.0 miles Calm Calm - N/A Rain Light Rain
1:55 PM 42.8°F 41.0°F 93% 29.60 in 9.0 miles Calm Calm - N/A Rain Light Rain
2:15 PM 42.8°F 41.0°F 93% 29.59 in 8.0 miles Calm Calm - N/A Rain Light Rain
2:35 PM 44.6°F 39.2°F 81% 29.58 in 7.0 miles ENE 3.5 mph - N/A Rain Light Rain
2:55 PM 44.6°F 39.2°F 81% 29.60 in 9.0 miles ESE 3.5 mph - N/A Rain Light Rain
3:15 PM 42.8°F 41.0°F 93% 29.59 in 5.0 miles Calm Calm - N/A Rain Light Rain
3:35 PM 44.6°F 41.0°F 87% 29.58 in 5.0 miles NNE 6.9 mph - N/A Rain Light Rain
3:55 PM 44.6°F 41.0°F 87% 29.57 in 5.0 miles NNE 5.8 mph - N/A Rain Light Rain
4:15 PM 44.6°F 41.0°F 87% 29.58 in 8.0 miles ENE 4.6 mph - N/A Rain Light Rain
4:35 PM 46.4°F 41.0°F 81% 29.59 in 10.0 miles Calm Calm - N/A   Scattered Clouds
4:55 PM 46.4°F 42.8°F 87% 29.60 in 10.0 miles Calm Calm - N/A Rain Light Rain
5:15 PM 44.6°F 42.8°F 93% 29.58 in 10.0 miles Calm Calm - N/A   Scattered Clouds
5:35 PM 44.6°F 42.8°F 93% 29.59 in 10.0 miles Calm Calm - N/A   Clear
5:55 PM 46.4°F 41.0°F 81% 29.60 in 10.0 miles ENE 4.6 mph - N/A   Clear
6:15 PM 46.4°F 41.0°F 81% 29.60 in 10.0 miles ENE 3.5 mph - N/A   Clear
6:35 PM 46.4°F 41.0°F 81% 29.59 in 10.0 miles Calm Calm - N/A   Partly Cloudy
6:55 PM 46.4°F 41.0°F 81% 29.59 in 10.0 miles Calm Calm - N/A   Clear
7:15 PM 44.6°F 41.0°F 87% 29.60 in 10.0 miles Calm Calm - N/A   Partly Cloudy
7:35 PM 44.6°F 41.0°F 87% 29.60 in 10.0 miles East 4.6 mph - N/A   Partly Cloudy
7:55 PM 44.6°F 41.0°F 87% 29.60 in 10.0 miles Calm Calm - N/A   Clear
8:15 PM 44.6°F 41.0°F 87% 29.59 in 10.0 miles Calm Calm - N/A   Clear
8:35 PM 50.0°F 44.6°F 82% 29.59 in 10.0 miles South 12.7 mph 18.4 mph N/A   Clear
8:55 PM 51.8°F 44.6°F 76% 29.59 in 10.0 miles South 16.1 mph 26.5 mph N/A   Clear
9:15 PM 51.8°F 44.6°F 76% 29.60 in 10.0 miles South 11.5 mph 28.8 mph N/A   Clear
9:35 PM 50.0°F 44.6°F 82% 29.61 in 10.0 miles South 12.7 mph 19.6 mph N/A   Clear
9:55 PM 50.0°F 44.6°F 82% 29.61 in 10.0 miles South 16.1 mph 25.3 mph N/A   Partly Cloudy
10:15 PM 50.0°F 44.6°F 82% 29.63 in 10.0 miles South 15.0 mph 23.0 mph N/A   Mostly Cloudy
10:35 PM 50.0°F 46.4°F 87% 29.64 in 10.0 miles South 13.8 mph 23.0 mph N/A   Overcast
11:15 PM 50.0°F 46.4°F 87% 29.64 in 10.0 miles South 12.7 mph 20.7 mph N/A   Overcast
11:35 PM 50.0°F 46.4°F 87% 29.64 in 10.0 miles South 12.7 mph 27.6 mph N/A   Overcast
11:55 PM 50.0°F 44.6°F 82% 29.64 in 10.0 miles South 9.2 mph 19.6 mph N/A   Scattered Clouds
Moon Phase
Nov. 28 Dec. 06 Dec. 13 Dec. 20 Dec. 28
Sunrise:07:40 AM (PST) Moon Rise:04:38 PM (PST)11/28
Sunset:04:19 PM (PST) Moon Set:07:42 AM (PST)11/28

Copyright © 2014 The Weather Underground, Inc.